User: anonymous   Login
Location: New Mesquite
(33.1168°N, 96.4336°W)
Time: 05:27:30
(UTC+00:00)
Language:

Okean 1 - Orbit

View from above orbital plane
View from above orbital plane
View from above satellite
View from above satellite

Ground track
Ground track

The orbit data is extracted from the following two-line orbital elements,

1 19274U 88056A   22148.84652407  .00001896  00000-0  12230-3 0  9998
2 19274  82.5026 193.0693 0008127 271.1935  88.8362 15.07723682846931
Epoch (UTC): 28 May 2022 20:18:59
Eccentricity: 0.0008127
inclination: 82.5026°
perigee height: 537 km
apogee height: 549 km
right ascension of ascending node: 193.0693°
argument of perigee: 271.1935°
revolutions per day: 15.07723682
mean anomaly at epoch: 88.8362°
orbit number at epoch: 84693

The dashed part of the orbit path shows where the satellite is in the earth's shadow,  

DLR